Weather History for KBKL - April, 2014

Change the Weather History Date:

Tuesday, April 15, 2014

  Actual Average Record
Temperature  
Mean Temperature 34 °F -  
Max Temperature 37 °F 55 °F 82 °F (2002)
Min Temperature 28 °F 41 °F 28 °F (2014)
Degree Days  
Heating Degree Days 32    
Moisture  
Dew Point 29 °F    
Average Humidity 85    
Maximum Humidity 100    
Minimum Humidity 56    
Precipitation  
Precipitation 0.34 in - - ()
Sea Level Pressure  
Sea Level Pressure 29.87 in    
Wind  
Wind Speed 16 mph (NW)    
Max Wind Speed 24 mph    
Max Gust Speed 37 mph    
Visibility 6 miles    
Events Rain , Snow    
Averages and records for this station are not official NWS values.
T = Trace of Precipitation, MM = Missing Value Source: NWS Daily Summary

Daily Weather History Graph

Daily Weather History Graph

Search for Another Location

Airport or City:

Trip Planner

Search our weather history database for the weather conditions in past years. The results will help you decide how hot, cold, wet, or windy it might be!

Date:

Astronomy

Apr. 15, 2014 Rise Set
Actual Time 6:46 AM EDT 8:07 PM EDT
Civil Twilight 6:18 AM EDT 8:36 PM EDT
Nautical Twilight 5:43 AM EDT 9:10 PM EDT
Astronomical Twilight 5:07 AM EDT 9:47 PM EDT
Moon 8:47 PM EDT (4/15) 6:53 AM EDT (4/15)
Length of Visible Light 14h 17m
Length of Day
13h 20m
Full, 100% of the Moon is Illuminated
Apr 15
Full
Apr 22
Last Quarter
Apr 29
New
May 6
First Quarter
May 14
Full

Hourly Weather History & Observations

Time (EDT) Temp. Windchill Dew Point Humidity Pressure Visibility Wind Dir Wind Speed Gust Speed Precip Events Conditions
12:12 AM 39.2 °F 32.5 °F 37.4 °F 93% 29.70 in 4.0 mi North 10.4 mph - 0.08 in Rain Light Rain
12:20 AM 39.2 °F 32.0 °F 37.4 °F 93% 29.73 in 3.0 mi NW 11.5 mph - 0.15 in Rain Light Rain
12:35 AM 39.2 °F 31.2 °F 37.4 °F 93% 29.71 in 8.0 mi North 13.8 mph - 0.18 in Rain Light Rain
12:48 AM 37.4 °F 28.5 °F 37.4 °F 100% 29.70 in 9.0 mi North 15.0 mph - 0.19 in Rain Light Rain
12:53 AM 37.9 °F 30.0 °F 37.0 °F 97% 29.69 in 9.0 mi North 12.7 mph - 0.19 in Rain Light Rain
1:09 AM 37.4 °F 28.9 °F 37.4 °F 100% 29.68 in 10.0 mi NNE 13.8 mph - 0.01 in Rain Light Rain
1:21 AM 37.4 °F 28.9 °F 37.4 °F 100% 29.67 in 9.0 mi North 13.8 mph - 0.01 in Rain Light Rain
1:37 AM 37.4 °F 28.5 °F 37.4 °F 100% 29.69 in 6.0 mi North 15.0 mph - 0.05 in Rain Light Rain
1:49 AM 37.4 °F 27.8 °F 35.6 °F 93% 29.68 in 6.0 mi North 17.3 mph - 0.08 in Rain Light Rain
1:53 AM 37.0 °F 27.0 °F 36.0 °F 96% 29.69 in 5.0 mi North 18.4 mph - 0.09 in Rain Light Rain
2:12 AM 35.6 °F 24.5 °F 35.6 °F 100% 29.70 in 5.0 mi NNW 20.7 mph - N/A Rain Light Rain
2:33 AM 35.6 °F 24.2 °F 35.6 °F 100% 29.69 in 9.0 mi NNW 21.9 mph 26.5 mph N/A Rain Light Rain
2:45 AM 35.6 °F 25.5 °F 33.8 °F 93% 29.68 in 10.0 mi North 17.3 mph 26.5 mph N/A Rain Light Rain
2:53 AM 36.0 °F 24.7 °F 35.1 °F 97% 29.68 in 10.0 mi NNW 21.9 mph 27.6 mph N/A Rain Light Rain
3:45 AM 33.8 °F 21.9 °F 32.0 °F 93% 29.73 in 8.0 mi NNW 21.9 mph 28.8 mph 0.04 in Rain Light Rain
3:53 AM 34.0 °F 22.7 °F 32.0 °F 92% 29.73 in 9.0 mi NNW 19.6 mph - 0.05 in Rain Light Rain
4:16 AM 33.8 °F 22.8 °F 30.2 °F 87% 29.72 in 10.0 mi North 18.4 mph - 0.00 in Rain Light Rain
4:23 AM 33.8 °F 22.5 °F 30.2 °F 87% 29.72 in 10.0 mi NNW 19.6 mph 25.3 mph N/A Rain Light Rain
4:32 AM 33.8 °F 23.5 °F 30.2 °F 87% 29.73 in 10.0 mi North 16.1 mph - N/A Rain Light Rain
4:53 AM 33.1 °F 21.9 °F 30.9 °F 92% 29.73 in 9.0 mi NNW 18.4 mph - N/A Rain Light Rain
4:58 AM 33.8 °F 22.8 °F 30.2 °F 87% 29.73 in 8.0 mi NNW 18.4 mph - 0.00 in Rain Light Rain
5:53 AM 32.0 °F 19.5 °F 30.0 °F 92% 29.76 in 3.0 mi NNW 21.9 mph - 0.00 in Rain Light Rain
5:57 AM 32.0 °F 20.5 °F 30.2 °F 93% 29.74 in 2.5 mi NNW 18.4 mph - 0.00 in Rain Light Rain
6:12 AM 32.0 °F 22.1 °F 30.2 °F 93% 29.77 in 2.5 mi NNW 13.8 mph - 0.00 in Rain Light Rain
6:30 AM 32.0 °F 21.2 °F 30.2 °F 93% 29.76 in 1.8 mi NNW 16.1 mph - 0.00 in Rain Light Rain
6:39 AM 32.0 °F 20.1 °F 30.2 °F 93% 29.75 in 1.5 mi NNW 19.6 mph 25.3 mph 0.01 in Rain Light Rain
6:53 AM 32.0 °F 20.1 °F 30.0 °F 92% 29.76 in 1.5 mi NNW 19.6 mph - 0.01 in Rain Light Rain
7:00 AM 32.0 °F 20.8 °F 30.2 °F 93% 29.77 in 3.0 mi NNW 17.3 mph - 0.00 in Snow Light Snow
7:22 AM 32.0 °F 20.1 °F 30.2 °F 93% 29.76 in 5.0 mi NNW 19.6 mph - 0.00 in Snow Light Snow
7:45 AM 32.0 °F 20.1 °F 28.4 °F 87% 29.81 in 2.5 mi NW 19.6 mph - 0.00 in Snow Light Snow
7:53 AM 32.0 °F 20.8 °F 30.0 °F 92% 29.82 in 1.8 mi NNW 17.3 mph - 0.00 in Snow Light Snow
7:59 AM 32.0 °F 20.1 °F 30.2 °F 93% 29.80 in 2.5 mi NNW 19.6 mph - 0.00 in Snow Light Snow
8:32 AM 30.2 °F 17.1 °F 28.4 °F 93% 29.81 in 3.0 mi NNW 21.9 mph 27.6 mph 0.00 in Snow Light Snow
8:39 AM 30.2 °F 17.8 °F 28.4 °F 93% 29.83 in 2.5 mi NW 19.6 mph 27.6 mph 0.00 in Snow Light Snow
8:44 AM 30.2 °F 17.4 °F 28.4 °F 93% 29.84 in 3.0 mi NW 20.7 mph 27.6 mph 0.00 in Snow Light Snow
8:53 AM 32.0 °F 19.5 °F 28.9 °F 88% 29.86 in 6.0 mi NW 21.9 mph - 0.00 in Snow Light Snow
9:18 AM 32.0 °F 18.9 °F 28.4 °F 87% 29.83 in 10.0 mi NW 24.2 mph 29.9 mph 0.00 in   Overcast
9:53 AM 32.0 °F 19.8 °F 27.0 °F 82% 29.88 in 10.0 mi WNW 20.7 mph - 0.00 in   Overcast
10:53 AM 30.9 °F 18.1 °F 26.1 °F 82% 29.94 in 10.0 mi WNW 21.9 mph 26.5 mph N/A   Overcast
11:53 AM 30.9 °F 18.4 °F 26.1 °F 82% 29.94 in 10.0 mi WNW 20.7 mph 27.6 mph 0.00 in   Overcast
12:53 PM 30.0 °F 17.9 °F 24.1 °F 79% 29.96 in 10.0 mi WNW 18.4 mph - N/A   Overcast
1:53 PM 30.0 °F 17.2 °F 24.1 °F 79% 30.00 in 10.0 mi WNW 20.7 mph 26.5 mph N/A   Overcast
2:44 PM 30.2 °F 18.9 °F 23.0 °F 75% 30.01 in 9.0 mi WNW 16.1 mph - 0.00 in Snow Light Snow
2:53 PM 30.0 °F 17.9 °F 23.0 °F 75% 30.02 in 3.0 mi WNW 18.4 mph - 0.00 in Snow Light Snow
3:04 PM 30.2 °F 18.5 °F 23.0 °F 75% 30.01 in 3.0 mi WNW 17.3 mph - 0.00 in Snow Light Snow
3:32 PM 30.2 °F 18.9 °F 21.2 °F 69% 30.01 in 3.0 mi WNW 16.1 mph - 0.00 in Snow Light Snow
3:53 PM 30.9 °F 19.4 °F 24.1 °F 76% 30.03 in 3.0 mi WNW 17.3 mph - 0.00 in Snow Light Snow
4:22 PM 32.0 °F 19.8 °F 21.2 °F 64% 30.02 in 10.0 mi NW 20.7 mph - 0.00 in   Overcast
4:53 PM 32.0 °F 19.2 °F 23.0 °F 69% 30.06 in 10.0 mi West 23.0 mph 27.6 mph 0.00 in   Mostly Cloudy
5:53 PM 32.0 °F 20.8 °F 19.9 °F 61% 30.07 in 9.0 mi WNW 17.3 mph - 0.00 in Snow Light Snow
6:53 PM 32.0 °F 21.2 °F 19.9 °F 61% 30.10 in 10.0 mi WNW 16.1 mph - 0.00 in   Overcast
7:48 PM 30.2 °F 19.8 °F 21.2 °F 69% 30.11 in 1.8 mi West 13.8 mph 36.8 mph 0.00 in Snow Light Snow
7:53 PM 30.0 °F 20.0 °F 23.0 °F 75% 30.14 in 1.5 mi West 12.7 mph 31.1 mph 0.00 in Snow Light Snow
7:57 PM 30.2 °F 20.2 °F 23.0 °F 75% 30.11 in 3.0 mi West 12.7 mph - 0.00 in Snow Light Snow
8:40 PM 28.4 °F 17.0 °F 24.8 °F 86% 30.13 in 1.8 mi NW 15.0 mph 34.5 mph 0.00 in Snow Light Snow
8:46 PM 30.2 °F 19.3 °F 24.8 °F 80% 30.13 in 3.0 mi NNW 15.0 mph 21.9 mph 0.00 in Snow Light Snow
8:53 PM 30.0 °F 20.0 °F 24.1 °F 79% 30.17 in 9.0 mi NNW 12.7 mph - 0.00 in   Overcast
9:53 PM 32.0 °F 21.2 °F 21.0 °F 64% 30.19 in 10.0 mi NW 16.1 mph - N/A   Mostly Cloudy
10:53 PM 32.0 °F 19.8 °F 18.0 °F 56% 30.22 in 10.0 mi NW 20.7 mph 24.2 mph N/A   Clear
11:53 PM 32.0 °F 20.8 °F 19.9 °F 61% 30.23 in 10.0 mi North 17.3 mph 25.3 mph N/A   Mostly Cloudy